230P/LINEAR (2022)

Japanese version
Home page
Updated on May 29, 2022

---------------------------------------------------------------------

* Profile

* Pictures

* Orbital Elements

Epoch 2022 Jan. 21.0 TT = JDT 2459600.5
T 2022 Mar. 19.32750 TT                                 Rudenko
q   1.5687840            (2000.0)            P               Q
n   0.15371061     Peri.  313.42656     +0.46859726     -0.84577788
a   3.4514386      Node   106.98530     +0.86784425     +0.38675630
e   0.5454695      Incl.   15.47012     +0.16511504     +0.36753142
P   6.41
From 1451 observations 1997 Jan. 10-2022 Feb. 13, mean residual 0".5.

* Magnitudes Graph

        H = 14.5  G = 0.15

---------------------------------------------------------------------

The orbital elements are published on M.P.E.C. 2022-C234.
The magnitudes graphs are made with Comet for Windows.

---------------------------------------------------------------------

Copyright(C) Seiichi Yoshida (comet@aerith.net). All rights reserved.